Chicago, IL

1:07 PM CST on December 14, 2017 (GMT -0600)
Chicago-O'Hare International

Weather History for KORD - December, 2013

Change the Weather History Date:

Monday, December 9, 2013

  Actual Average Record
Temperature  
Mean Temperature 13 °F 29 °F  
Max Temperature 25 °F 37 °F 62 °F (1879)
Min Temperature 0 °F 22 °F -14 °F (1958)
Degree Days  
Heating Degree Days 52 36  
Month to date heating degree days 324 306  
Since 1 July heating degree days 1607 1562  
Cooling Degree Days 0 0  
Month to date cooling degree days 0 0  
Year to date cooling degree days 933 843  
Moisture  
Dew Point 9 °F    
Average Humidity 75    
Maximum Humidity 88    
Minimum Humidity 61    
Precipitation  
Precipitation T in 0.08 in 1.47 in (2008)
Month to date precipitation 0.35 0.80  
Year to date precipitation 40.50 35.44  
Snow  
Snow T in 0.20 in 5.10 in (1931)
Month to date snowfall 3.1 1.9  
Since 1 July snowfall 4.0 3.3  
Snow Depth 3.00 in    
Sea Level Pressure  
Sea Level Pressure 30.10 in    
Wind  
Wind Speed 15 mph (West)    
Max Wind Speed 25 mph    
Max Gust Speed 32 mph    
Visibility 8 miles    
Events Snow    
T = Trace of Precipitation, MM = Missing Value Source: NWS Daily Summary

Daily Weather History Graph

Daily Weather History Graph

Search for Another Location

Airport or City:

Trip Planner

Search our weather history database for the weather conditions in past years. The results will help you decide how hot, cold, wet, or windy it might be!

Date:

Astronomy

Dec. 09, 2013 Rise Set
Actual Time 7:07 AM CST 4:20 PM CST
Civil Twilight 6:36 AM CST 4:51 PM CST
Nautical Twilight 6:01 AM CST 5:26 PM CST
Astronomical Twilight 5:27 AM CST 6:00 PM CST
Moon 11:55 AM CST (12/9) No Moon Set
Length of Visible Light 10h 15m
Length of Day
9h 12m
Waxing Crescent, 51% of the Moon is Illuminated
Dec 9
Waxing Crescent
Dec 17
Full
Dec 25
Last Quarter
Jan 1
New
Jan 7
First Quarter

Hourly Weather History & Observations

Time (CST) Temp. Windchill Dew Point Humidity Pressure Visibility Wind Dir Wind Speed Gust Speed Precip Events Conditions
12:51 AM 25.0 °F 15.5 °F 21.9 °F 88% 29.94 in 5.0 mi WSW 9.2 mph - N/A   Overcast
1:51 AM 24.1 °F 13.1 °F 21.0 °F 88% 29.94 in 5.0 mi West 11.5 mph - N/A   Overcast
2:51 AM 24.1 °F 12.5 °F 21.0 °F 88% 29.96 in 6.0 mi West 12.7 mph - N/A   Overcast
3:51 AM 23.0 °F 10.1 °F 19.9 °F 88% 29.96 in 5.0 mi West 15.0 mph 21.9 mph 0.00 in Snow Light Snow
4:07 AM 23.0 °F 10.1 °F 19.4 °F 86% 29.94 in 4.0 mi West 15.0 mph - 0.00 in Snow Light Snow
4:40 AM 23.0 °F 11.1 °F 19.4 °F 86% 29.95 in 5.0 mi West 12.7 mph - 0.00 in Snow Light Snow
4:51 AM 23.0 °F 11.7 °F 19.0 °F 85% 29.99 in 5.0 mi West 11.5 mph - 0.00 in Snow Light Snow
5:51 AM 23.0 °F 11.7 °F 18.0 °F 81% 30.00 in 6.0 mi West 11.5 mph 21.9 mph 0.00 in Snow Light Snow
6:51 AM 21.9 °F 9.8 °F 16.0 °F 78% 30.02 in 7.0 mi West 12.7 mph - 0.00 in Snow Light Snow
7:51 AM 19.9 °F 5.7 °F 15.1 °F 81% 30.07 in 8.0 mi West 16.1 mph 23.0 mph 0.00 in   Overcast
8:51 AM 19.0 °F 4.0 °F 14.0 °F 81% 30.09 in 10.0 mi West 17.3 mph 25.3 mph N/A   Overcast
9:51 AM 19.0 °F 5.6 °F 12.9 °F 77% 30.09 in 10.0 mi West 13.8 mph - N/A   Mostly Cloudy
10:26 AM 19.4 °F 6.0 °F 12.2 °F 74% 30.07 in 10.0 mi West 13.8 mph - N/A   Mostly Cloudy
10:51 AM 19.0 °F 5.0 °F 12.0 °F 74% 30.11 in 10.0 mi West 15.0 mph - N/A   Mostly Cloudy
11:51 AM 18.0 °F 3.1 °F 10.0 °F 71% 30.12 in 10.0 mi West 16.1 mph 24.2 mph N/A   Mostly Cloudy
12:51 PM 19.0 °F 2.4 °F 9.0 °F 65% 30.12 in 10.0 mi WSW 21.9 mph 27.6 mph N/A   Scattered Clouds
1:51 PM 18.0 °F 3.6 °F 7.0 °F 62% 30.14 in 10.0 mi WSW 15.0 mph 26.5 mph N/A   Mostly Cloudy
2:51 PM 16.0 °F -1.3 °F 7.0 °F 68% 30.16 in 10.0 mi WSW 20.7 mph 31.1 mph N/A   Mostly Cloudy
3:51 PM 15.1 °F -3.3 °F 5.0 °F 64% 30.18 in 10.0 mi WSW 23.0 mph 29.9 mph N/A   Mostly Cloudy
4:51 PM 12.9 °F -6.1 °F 1.0 °F 59% 30.19 in 10.0 mi West 23.0 mph 28.8 mph N/A   Mostly Cloudy
5:51 PM 10.0 °F -9.1 °F 1.0 °F 67% 30.20 in 10.0 mi West 20.7 mph 27.6 mph N/A   Mostly Cloudy
6:51 PM 7.0 °F -11.6 °F -2.9 °F 64% 30.22 in 10.0 mi West 17.3 mph - N/A   Mostly Cloudy
7:51 PM 5.0 °F -10.0 °F -4.0 °F 66% 30.25 in 10.0 mi WSW 10.4 mph - N/A   Mostly Cloudy
8:51 PM 3.9 °F -10.4 °F -5.1 °F 66% 30.24 in 10.0 mi WSW 9.2 mph - N/A   Scattered Clouds
9:51 PM 3.0 °F -13.3 °F -5.1 °F 69% 30.25 in 10.0 mi West 11.5 mph - N/A   Scattered Clouds
10:51 PM 1.9 °F -11.8 °F -7.1 °F 66% 30.24 in 10.0 mi West 8.1 mph - N/A   Scattered Clouds
11:51 PM 1.0 °F -10.3 °F -7.1 °F 69% 30.24 in 10.0 mi WSW 5.8 mph - N/A   Scattered Clouds